SCP
0 0 0 0 0 0 0 0 0 0 0 0 0 0 0 0 0 0 0 0 0 0 0 0 0 0 0 0 0 0 0 0 0 0 0 0 0 0 0 0 0 0 0
0 0 0 0 0 0 0 0 0 0 0 0 0 0 0 0 0 0 0 0 0 0 0 0 0 0 0 0 0 0 0 0 0 0 0 0 0 0 0 0 0 0 0
0 0 0 0 0 0 0 0 0 0 0 0 0 0 0 0 0 0 0 0 0 0 0 0 0 0 0 0 0 0 0 0 0 0 0 0 0 0 0 0 0 0 0
0 0 0 0 0 0 0 0 0 0 0 0 0 0 0 0 0 0 0 0 0 0 0 0 0 0 0 0 0 0 0 0 0 0 0 0 0 0 0 0 0 0 0
0 0 0 0 0 0 0 0 0 0 0 0 0 0 0 0 0 0 0 0 0 0 0 0 0 0 0 0 0 0 0 0 0 0 0 0 0 0 0 0 0 0 0
0 0 0 0 0 0 0 0 0 0 0 0 0 0 0 0 0 0 0 0 0 0 0 0 0 0 0 0 0 0 0 0 0 0 0 0 0 0 0 0 0 0 0
0 0 0 0 0 0 0 0 0 0 0 0 0 0 0 0 0 0 0 0 0 0 0 0 0 0 0 0 0 0 0 0 0 0 0 0 0 0 0 0 0 0 0
0 0 0 0 0 0 0 0 0 0 0 0 0 0 0 0 0 0 0 0 0 0 0 0 0 0 0 0 0 0 0 0 0 0 0 0 0 0 0 0 0 0 0
0 0 0 0 0 0 0 0 0 0 0 0 0 0 0 0 0 0 0 0 0 0 0 0 0 0 0 0 0 0 0 0 0 0 0 0 0 0 0 0 0 0 0
0 0 0 0 0 0 0 0 0 0 0 0 0 0 0 0 0 0 0 0 0 0 0 0 0 0 0 0 0 0 0 0 0 0 0 0 0 0 0 0 0 0 0
0 0 0 0 0 0 0 0 0 0 0 0 0 0 0 0 0 0 0 0 0 0 0 0 0 0 0 0 0 0 0 0 0 0 0 0 0 0 0 0 0 0 0
0 0 0 0 0 0 0 0 0 0 0 0 0 0 0 0 0 0 0 0 0 0 0 0 0 0 0 0 0 0 0 0 0 0 0 0 0 0 0 0 0 0 0
0 0 0 0 0 0 0 0 0 0 0 0 0 0 0 0 0 0 0 0 0 0 0 0 0 0 0 0 0 0 0 0 0 0 0 0 0 0 0 0 0 0 0
0 0 0 0 0 0 0 0 0 0 0 0 0 0 0 0 0 0 0 0 0 0 0 0 0 0 0 0 0 0 0 0 0 0 0 0 0 0 0 0 0 0 0
0 0 0 0 0 0 0 0 0 0 0 0 0 0 0 0 0 0 0 0 0 0 0 0 0 0 0 0 0 0 0 0 0 0 0 0 0 0 0 0 0 0 0
0 0 0 0 0 0 0 0 0 0 0 0 0 0 0 0 0 0 0 0 0 0 0 0 0 0 0 0 0 0 0 0 0 0 0 0 0 0 0 0 0 0 0
0 0 0 0 0 0 0 0 0 0 0 0 0 0 0 0 0 0 0 0 0 0 0 0 0 0 0 0 0 0 0 0 0 0 0 0 0 0 0 0 0 0 0
0 0 0 0 0 0 0 0 0 0 0 0 0 0 0 0 0 0 0 0 0 0 0 0 0 0 0 0 0 0 0 0 0 0 0 0 0 0 0 0 0 0 0
0 0 0 0 0 0 0 0 0 0 0 0 0 0 0 0 0 0 0 0 0 0 0 0 0 0 0 0 0 0 0 0 0 0 0 0 0 0 0 0 0 0 0
0 0 0 0 0 0 0 0 0 0 0 0 0 0 0 0 0 0 0 0 0 0 0 0 0 0 0 0 0 0 0 0 0 0 0 0 0 0 0 0 0 0 0
0 0 0 0 0 0 0 0 0 0 0 0 0 0 0 0 0 0 0 0 0 0 0 0 0 0 0 0 0 0 0 0 0 0 0 0 0 0 0 0 0 0 0
0 0 0 0 0 0 0 0 0 0 0 0 0 0 0 0 0 0 0 0 0 0 0 0 0 0 0 0 0 0 0 0 0 0 0 0 0 0 0 0 0 0 0
0 0 0 0 0 0 0 0 0 0 0 0 0 0 0 0 0 0 0 0 0 0 0 0 0 0 0 0 0 0 0 0 0 0 0 0 0 0 0 0 0 0 0
0 0 0 0 0 0 0 0 0 0 0 0 0 0 0 0 0 0 0 0 0 0 0 0 0 0 0 0 0 0 0 0 0 0 0 0 0 0 0 0 0 0 0
0 0 0 0 0 0 0 0 0 0 0 0 0 0 0 0 0 0 0 0 0 0 0 0 0 0 0 0 0 0 0 0 0 0 0 0 0 0 0 0 0 0 0
0 0 0 0 0 0 0 0 0 0 0 0 0 0 0 0 0 0 0 0 0 0 0 0 0 0 0 0 0 0 0 0 0 0 0 0 0 0 0 0 0 0 0
Wind_Speed_500mb
18 18 19 20 24 27 30 34 36 37 38 41 42 45 48 47 45 46 49 50 52 55 60 63 64 64 67 68 70 72 74 75 92 109 100 99 102 100 94 86 80 77 78
20 19 19 19 20 22 24 25 27 29 31 30 30 31 32 34 37 40 45 48 52 57 60 64 66 66 68 69 69 74 76 77 83 104 100 101 101 102 101 97 91 85 84
25 24 24 23 21 20 19 18 17 16 17 18 21 23 26 30 34 38 42 45 49 52 55 60 63 66 69 70 73 74 76 78 83 93 107 102 105 105 106 103 101 97 92
24 23 21 21 20 17 13 10 8 7 7 8 11 15 19 23 28 32 37 41 46 49 52 56 59 62 66 66 70 73 75 78 83 93 103 107 105 107 110 108 110 101 96
25 23 22 20 18 15 11 7 4 4 7 11 14 19 23 27 31 36 41 46 49 52 53 56 59 60 61 63 67 71 74 79 84 91 102 107 109 97 105 108 110 105 107
26 23 19 15 11 8 4 3 7 12 16 20 24 29 32 35 39 44 50 55 59 65 68 68 69 69 67 67 67 69 70 75 83 88 100 108 113 107 106 109 109 104 97
24 19 13 8 4 2 6 11 15 20 23 27 32 37 40 43 48 52 57 64 69 72 75 78 81 81 80 81 81 81 81 79 80 81 91 103 106 104 100 99 104 106 105
18 12 7 3 5 9 13 18 22 26 30 34 38 42 45 46 50 55 60 65 70 74 76 78 81 84 83 82 84 90 92 90 87 83 85 92 90 92 89 92 95 98 104
13 8 5 5 10 15 20 25 30 34 38 41 46 50 55 55 57 61 66 70 75 78 78 80 82 84 81 78 82 87 95 96 91 88 88 88 84 76 70 75 80 87 90
10 5 4 10 18 24 30 33 38 43 46 50 54 57 61 65 63 63 64 72 79 81 82 82 79 80 79 75 73 78 91 100 95 94 92 89 86 83 73 76 82 81 88
5 12 19 23 24 28 33 39 43 49 55 59 63 65 68 70 71 67 64 69 74 81 84 86 83 80 80 79 70 72 81 85 93 92 96 95 87 86 87 80 76 71 73
15 13 15 20 25 31 37 43 49 55 61 65 69 72 73 74 75 73 71 70 71 74 81 86 87 86 86 84 78 78 77 78 77 83 89 95 81 82 81 81 74 66 60
14 14 18 23 29 36 42 47 52 57 63 67 70 76 79 78 75 71 71 72 69 69 77 87 87 86 86 88 87 83 73 78 72 73 76 81 78 77 75 71 66 59 51
11 15 19 26 32 39 44 50 53 56 61 65 69 73 76 77 75 73 74 76 75 71 71 82 89 89 88 84 81 77 74 78 74 70 71 72 72 65 62 59 58 53 49
11 16 23 29 35 40 45 49 52 53 58 62 64 68 73 77 72 68 67 74 73 69 69 77 84 84 83 80 78 77 75 76 69 65 65 63 59 55 53 52 49 46 45
13 18 24 31 37 43 48 49 50 54 52 52 53 57 62 65 64 62 65 68 66 61 63 69 73 72 73 73 75 74 75 70 64 60 57 51 49 44 46 45 41 39 42
16 22 30 36 42 47 51 55 60 52 53 52 53 55 55 61 64 66 65 67 63 51 52 59 62 63 66 65 66 67 68 60 53 52 47 42 37 38 38 35 32 30 32
21 28 33 38 42 46 50 53 57 62 65 60 52 55 56 58 56 54 58 62 61 47 42 48 55 59 58 58 60 60 56 48 49 44 42 32 31 32 35 31 29 26 29
24 30 35 40 42 45 47 49 52 54 55 57 58 57 58 57 51 48 48 50 53 52 50 49 48 47 42 49 52 50 46 43 42 39 34 29 28 27 28 26 25 22 27
28 33 36 38 39 41 43 45 47 50 52 53 52 54 59 61 57 53 47 48 49 47 47 47 45 44 43 42 41 40 41 39 38 34 31 27 26 25 25 26 25 24 24
27 29 33 34 36 36 38 40 43 45 47 49 48 47 47 50 51 50 50 47 48 49 49 49 48 47 46 44 41 37 34 30 34 34 30 28 28 26 23 24 26 25 24
26 26 28 29 30 32 34 37 39 41 43 46 46 43 43 46 47 47 46 46 45 46 47 47 47 46 45 44 41 37 34 31 28 25 24 27 27 27 26 25 25 22 22
23 22 24 26 28 30 33 35 37 38 41 43 45 46 45 45 46 46 46 46 46 45 45 45 45 43 41 39 37 37 36 34 31 29 28 26 25 25 25 25 26 26 26
21 21 22 25 28 30 32 34 36 38 41 43 45 46 46 46 46 46 46 45 45 45 44 43 42 43 41 39 37 35 35 34 32 30 28 28 27 26 25 25 27 28 29
22 21 23 26 28 31 33 35 37 40 41 43 45 46 47 47 47 47 47 47 46 45 44 44 43 42 40 39 38 38 38 39 37 35 34 32 32 31 29 29 29 30 31
22 24 27 30 32 35 37 39 40 41 43 44 45 45 46 46 47 47 47 47 47 46 45 45 45 45 43 41 40 39 38 37 38 35 35 34 35 34 33 31 29 29 31
Wind_Direction_500mb
183 186 190 193 200 210 222 228 233 239 243 248 252 257 261 263 265 267 271 275 278 280 280 280 280 281 279 280 281 281 281 280 282 289 291 295 295 295 295 295 292 289 288
164 171 177 186 192 200 212 220 229 236 240 245 249 253 257 263 269 273 277 279 281 283 285 286 287 286 285 284 285 282 284 283 283 286 292 292 294 297 296 296 295 290 288
155 156 161 164 167 174 183 190 203 221 236 248 259 267 275 279 281 283 284 284 285 286 286 287 289 290 290 291 291 289 287 286 285 287 290 293 293 294 296 294 293 292 291
155 154 154 154 156 158 162 171 185 214 245 265 279 285 285 288 288 290 291 292 293 293 293 294 294 294 295 296 294 292 290 288 286 286 288 291 292 293 292 291 294 295 294
156 155 154 150 148 149 152 160 182 243 274 289 296 297 298 299 298 297 296 296 296 295 296 298 298 298 297 297 295 295 292 289 286 285 287 289 288 285 288 294 293 296 296
159 157 152 148 146 151 171 252 292 297 302 305 305 305 306 306 306 304 303 303 303 303 302 300 298 297 298 296 296 294 291 286 281 278 281 280 285 285 287 289 290 288 287
161 161 161 164 190 259 308 313 315 315 319 318 317 314 313 315 313 309 305 302 300 298 299 299 299 298 298 299 298 295 293 292 289 287 283 284 285 285 283 284 284 282 281
169 174 183 222 315 338 333 327 325 324 323 320 317 315 312 311 309 306 304 302 301 301 301 301 300 301 301 302 300 297 295 293 292 291 288 288 286 286 282 281 281 283 284
182 196 234 295 329 333 325 322 321 320 318 316 315 313 312 312 310 308 307 305 303 302 303 303 302 303 304 302 303 302 301 299 299 297 294 294 293 294 291 288 280 278 272
177 201 289 322 327 321 319 319 320 319 317 315 314 314 313 311 310 308 308 305 304 304 305 304 305 306 306 308 306 305 302 303 303 300 296 295 293 291 289 285 283 274 268
275 307 302 298 307 314 320 321 321 321 320 319 317 318 318 318 317 315 313 308 307 307 307 307 307 307 308 310 308 302 299 301 299 296 297 296 293 292 292 291 288 286 276
245 261 296 308 317 321 323 325 326 326 325 325 323 322 321 321 320 320 315 311 308 306 304 303 302 302 303 304 304 302 303 309 302 293 291 289 287 289 291 293 297 293 283
260 287 309 321 327 327 330 332 332 330 327 325 323 320 320 319 319 318 315 312 308 304 302 303 304 305 307 307 308 308 308 313 310 301 294 288 289 291 292 292 294 293 285
280 308 318 328 330 330 330 329 327 326 323 322 322 318 318 319 319 318 314 311 309 308 308 305 303 304 305 307 309 309 308 311 310 302 297 292 293 296 293 294 289 288 278
301 317 326 328 328 325 324 324 324 324 322 322 322 319 319 319 320 319 317 314 312 309 307 302 304 309 310 310 308 307 305 308 305 300 301 298 298 300 292 291 286 279 264
301 316 323 321 319 319 318 318 321 320 320 320 320 320 319 317 318 319 316 313 314 311 305 305 307 308 307 306 307 306 309 309 304 305 303 299 299 298 296 290 285 275 260
306 316 320 320 321 321 321 322 320 321 322 324 324 321 319 315 318 321 320 317 316 317 312 313 313 312 310 310 309 308 310 309 310 309 306 303 299 302 300 296 292 279 254
310 313 314 318 321 323 324 324 324 324 323 323 324 323 322 323 325 324 322 320 320 320 314 313 315 320 318 316 315 311 310 309 314 311 310 302 301 303 300 297 293 281 256
305 312 319 321 322 322 321 322 323 325 326 328 330 329 330 330 335 332 327 326 328 329 324 319 317 307 317 320 318 315 313 311 316 314 310 303 308 307 298 295 291 278 258
308 313 313 315 317 320 323 324 324 325 326 328 332 333 331 333 338 339 338 336 336 336 334 331 329 326 318 311 316 321 319 317 319 317 314 312 307 301 297 295 292 282 263
296 305 310 314 314 315 318 321 323 324 325 327 331 332 332 333 337 340 341 339 335 336 338 339 337 332 326 322 318 315 311 321 321 320 317 306 303 302 299 291 286 278 267
296 301 303 305 310 316 319 320 320 321 323 324 326 331 331 332 335 339 342 341 341 338 335 334 337 339 336 332 330 328 321 314 307 306 315 314 308 302 296 288 283 275 263
285 294 302 309 313 312 312 313 315 317 319 322 324 327 330 332 335 337 339 340 341 341 339 337 334 334 336 337 337 337 335 329 323 321 315 306 305 305 300 294 287 279 267
283 290 300 302 303 304 306 309 311 313 316 318 319 321 324 326 328 330 333 335 336 337 338 338 338 336 335 333 334 335 333 334 330 326 319 312 306 299 296 286 283 282 274
275 287 293 296 299 301 304 306 309 310 312 314 315 316 318 320 321 322 324 325 326 328 330 332 333 335 336 336 335 331 326 323 321 320 315 312 311 307 300 292 285 280 275
279 288 292 295 298 299 301 303 305 307 309 310 312 314 316 318 320 321 322 323 324 325 325 325 324 325 327 329 331 331 331 330 328 328 323 317 311 305 301 297 290 281 276
Wind_Speed_850mb
18 18 19 20 24 27 30 34 36 37 38 41 42 45 48 47 45 46 49 50 52 55 60 63 64 64 67 68 70 72 74 75 92 109 100 99 102 100 94 86 80 77 78
20 19 19 19 20 22 24 25 27 29 31 30 30 31 32 34 37 40 45 48 52 57 60 64 66 66 68 69 69 74 76 77 83 104 100 101 101 102 101 97 91 85 84
25 24 24 23 21 20 19 18 17 16 17 18 21 23 26 30 34 38 42 45 49 52 55 60 63 66 69 70 73 74 76 78 83 93 107 102 105 105 106 103 101 97 92
24 23 21 21 20 17 13 10 8 7 7 8 11 15 19 23 28 32 37 41 46 49 52 56 59 62 66 66 70 73 75 78 83 93 103 107 105 107 110 108 110 101 96
25 23 22 20 18 15 11 7 4 4 7 11 14 19 23 27 31 36 41 46 49 52 53 56 59 60 61 63 67 71 74 79 84 91 102 107 109 97 105 108 110 105 107
26 23 19 15 11 8 4 3 7 12 16 20 24 29 32 35 39 44 50 55 59 65 68 68 69 69 67 67 67 69 70 75 83 88 100 108 113 107 106 109 109 104 97
24 19 13 8 4 2 6 11 15 20 23 27 32 37 40 43 48 52 57 64 69 72 75 78 81 81 80 81 81 81 81 79 80 81 91 103 106 104 100 99 104 106 105
18 12 7 3 5 9 13 18 22 26 30 34 38 42 45 46 50 55 60 65 70 74 76 78 81 84 83 82 84 90 92 90 87 83 85 92 90 92 89 92 95 98 104
13 8 5 5 10 15 20 25 30 34 38 41 46 50 55 55 57 61 66 70 75 78 78 80 82 84 81 78 82 87 95 96 91 88 88 88 84 76 70 75 80 87 90
10 5 4 10 18 24 30 33 38 43 46 50 54 57 61 65 63 63 64 72 79 81 82 82 79 80 79 75 73 78 91 100 95 94 92 89 86 83 73 76 82 81 88
5 12 19 23 24 28 33 39 43 49 55 59 63 65 68 70 71 67 64 69 74 81 84 86 83 80 80 79 70 72 81 85 93 92 96 95 87 86 87 80 76 71 73
15 13 15 20 25 31 37 43 49 55 61 65 69 72 73 74 75 73 71 70 71 74 81 86 87 86 86 84 78 78 77 78 77 83 89 95 81 82 81 81 74 66 60
14 14 18 23 29 36 42 47 52 57 63 67 70 76 79 78 75 71 71 72 69 69 77 87 87 86 86 88 87 83 73 78 72 73 76 81 78 77 75 71 66 59 51
11 15 19 26 32 39 44 50 53 56 61 65 69 73 76 77 75 73 74 76 75 71 71 82 89 89 88 84 81 77 74 78 74 70 71 72 72 65 62 59 58 53 49
11 16 23 29 35 40 45 49 52 53 58 62 64 68 73 77 72 68 67 74 73 69 69 77 84 84 83 80 78 77 75 76 69 65 65 63 59 55 53 52 49 46 45
13 18 24 31 37 43 48 49 50 54 52 52 53 57 62 65 64 62 65 68 66 61 63 69 73 72 73 73 75 74 75 70 64 60 57 51 49 44 46 45 41 39 42
16 22 30 36 42 47 51 55 60 52 53 52 53 55 55 61 64 66 65 67 63 51 52 59 62 63 66 65 66 67 68 60 53 52 47 42 37 38 38 35 32 30 32
21 28 33 38 42 46 50 53 57 62 65 60 52 55 56 58 56 54 58 62 61 47 42 48 55 59 58 58 60 60 56 48 49 44 42 32 31 32 35 31 29 26 29
24 30 35 40 42 45 47 49 52 54 55 57 58 57 58 57 51 48 48 50 53 52 50 49 48 47 42 49 52 50 46 43 42 39 34 29 28 27 28 26 25 22 27
28 33 36 38 39 41 43 45 47 50 52 53 52 54 59 61 57 53 47 48 49 47 47 47 45 44 43 42 41 40 41 39 38 34 31 27 26 25 25 26 25 24 24
27 29 33 34 36 36 38 40 43 45 47 49 48 47 47 50 51 50 50 47 48 49 49 49 48 47 46 44 41 37 34 30 34 34 30 28 28 26 23 24 26 25 24
26 26 28 29 30 32 34 37 39 41 43 46 46 43 43 46 47 47 46 46 45 46 47 47 47 46 45 44 41 37 34 31 28 25 24 27 27 27 26 25 25 22 22
23 22 24 26 28 30 33 35 37 38 41 43 45 46 45 45 46 46 46 46 46 45 45 45 45 43 41 39 37 37 36 34 31 29 28 26 25 25 25 25 26 26 26
21 21 22 25 28 30 32 34 36 38 41 43 45 46 46 46 46 46 46 45 45 45 44 43 42 43 41 39 37 35 35 34 32 30 28 28 27 26 25 25 27 28 29
22 21 23 26 28 31 33 35 37 40 41 43 45 46 47 47 47 47 47 47 46 45 44 44 43 42 40 39 38 38 38 39 37 35 34 32 32 31 29 29 29 30 31
22 24 27 30 32 35 37 39 40 41 43 44 45 45 46 46 47 47 47 47 47 46 45 45 45 45 43 41 40 39 38 37 38 35 35 34 35 34 33 31 29 29 31
Wind_Direction_850mb
183 186 190 193 200 210 222 228 233 239 243 248 252 257 261 263 265 267 271 275 278 280 280 280 280 281 279 280 281 281 281 280 282 289 291 295 295 295 295 295 292 289 288
164 171 177 186 192 200 212 220 229 236 240 245 249 253 257 263 269 273 277 279 281 283 285 286 287 286 285 284 285 282 284 283 283 286 292 292 294 297 296 296 295 290 288
155 156 161 164 167 174 183 190 203 221 236 248 259 267 275 279 281 283 284 284 285 286 286 287 289 290 290 291 291 289 287 286 285 287 290 293 293 294 296 294 293 292 291
155 154 154 154 156 158 162 171 185 214 245 265 279 285 285 288 288 290 291 292 293 293 293 294 294 294 295 296 294 292 290 288 286 286 288 291 292 293 292 291 294 295 294
156 155 154 150 148 149 152 160 182 243 274 289 296 297 298 299 298 297 296 296 296 295 296 298 298 298 297 297 295 295 292 289 286 285 287 289 288 285 288 294 293 296 296
159 157 152 148 146 151 171 252 292 297 302 305 305 305 306 306 306 304 303 303 303 303 302 300 298 297 298 296 296 294 291 286 281 278 281 280 285 285 287 289 290 288 287
161 161 161 164 190 259 308 313 315 315 319 318 317 314 313 315 313 309 305 302 300 298 299 299 299 298 298 299 298 295 293 292 289 287 283 284 285 285 283 284 284 282 281
169 174 183 222 315 338 333 327 325 324 323 320 317 315 312 311 309 306 304 302 301 301 301 301 300 301 301 302 300 297 295 293 292 291 288 288 286 286 282 281 281 283 284
182 196 234 295 329 333 325 322 321 320 318 316 315 313 312 312 310 308 307 305 303 302 303 303 302 303 304 302 303 302 301 299 299 297 294 294 293 294 291 288 280 278 272
177 201 289 322 327 321 319 319 320 319 317 315 314 314 313 311 310 308 308 305 304 304 305 304 305 306 306 308 306 305 302 303 303 300 296 295 293 291 289 285 283 274 268
275 307 302 298 307 314 320 321 321 321 320 319 317 318 318 318 317 315 313 308 307 307 307 307 307 307 308 310 308 302 299 301 299 296 297 296 293 292 292 291 288 286 276
245 261 296 308 317 321 323 325 326 326 325 325 323 322 321 321 320 320 315 311 308 306 304 303 302 302 303 304 304 302 303 309 302 293 291 289 287 289 291 293 297 293 283
260 287 309 321 327 327 330 332 332 330 327 325 323 320 320 319 319 318 315 312 308 304 302 303 304 305 307 307 308 308 308 313 310 301 294 288 289 291 292 292 294 293 285
280 308 318 328 330 330 330 329 327 326 323 322 322 318 318 319 319 318 314 311 309 308 308 305 303 304 305 307 309 309 308 311 310 302 297 292 293 296 293 294 289 288 278
301 317 326 328 328 325 324 324 324 324 322 322 322 319 319 319 320 319 317 314 312 309 307 302 304 309 310 310 308 307 305 308 305 300 301 298 298 300 292 291 286 279 264
301 316 323 321 319 319 318 318 321 320 320 320 320 320 319 317 318 319 316 313 314 311 305 305 307 308 307 306 307 306 309 309 304 305 303 299 299 298 296 290 285 275 260
306 316 320 320 321 321 321 322 320 321 322 324 324 321 319 315 318 321 320 317 316 317 312 313 313 312 310 310 309 308 310 309 310 309 306 303 299 302 300 296 292 279 254
310 313 314 318 321 323 324 324 324 324 323 323 324 323 322 323 325 324 322 320 320 320 314 313 315 320 318 316 315 311 310 309 314 311 310 302 301 303 300 297 293 281 256
305 312 319 321 322 322 321 322 323 325 326 328 330 329 330 330 335 332 327 326 328 329 324 319 317 307 317 320 318 315 313 311 316 314 310 303 308 307 298 295 291 278 258
308 313 313 315 317 320 323 324 324 325 326 328 332 333 331 333 338 339 338 336 336 336 334 331 329 326 318 311 316 321 319 317 319 317 314 312 307 301 297 295 292 282 263
296 305 310 314 314 315 318 321 323 324 325 327 331 332 332 333 337 340 341 339 335 336 338 339 337 332 326 322 318 315 311 321 321 320 317 306 303 302 299 291 286 278 267
296 301 303 305 310 316 319 320 320 321 323 324 326 331 331 332 335 339 342 341 341 338 335 334 337 339 336 332 330 328 321 314 307 306 315 314 308 302 296 288 283 275 263
285 294 302 309 313 312 312 313 315 317 319 322 324 327 330 332 335 337 339 340 341 341 339 337 334 334 336 337 337 337 335 329 323 321 315 306 305 305 300 294 287 279 267
283 290 300 302 303 304 306 309 311 313 316 318 319 321 324 326 328 330 333 335 336 337 338 338 338 336 335 333 334 335 333 334 330 326 319 312 306 299 296 286 283 282 274
275 287 293 296 299 301 304 306 309 310 312 314 315 316 318 320 321 322 324 325 326 328 330 332 333 335 336 336 335 331 326 323 321 320 315 312 311 307 300 292 285 280 275
279 288 292 295 298 299 301 303 305 307 309 310 312 314 316 318 320 321 322 323 324 325 325 325 324 325 327 329 331 331 331 330 328 328 323 317 311 305 301 297 290 281 276